This demonstration page uses our WeatherBlox Daily Observations layout. Learn more.

40.92945, -100.16068

Hourly Observations for September 2, 2017

Temp ( °F °C ) Dew Point ( °F °C ) Humidity (%) Winds ( mph kmh ) Pressure ( in mb ) Visibility ( mi km ) Precip ( " mm )
12:15 am 00:15 Clear 65 18.1 61 16 88 88 SSE 3 6 29.97 1015 10 16.0934 0 0
12:35 am 00:35 Clear 65 18.1 60 15.8 87 87 Calm 29.97 1015 10 16.0934 0 0
12:55 am 00:55 Clear 62 16.8 59 15.1 90 90 Calm 29.97 1015 10 16.0934 0 0
1:15 am 01:15 Clear 65 18.2 60 15.7 85 85 Calm 29.97 1015 10 16.0934 0 0
1:35 am 01:35 Clear 64 17.6 59 15.2 86 86 SSE 3 6 29.97 1015 10 16.0934 0 0
1:55 am 01:55 Clear 64 17.9 59 15.2 84 84 SSW 5 7 29.97 1015 10 16.0934 0 0
2:15 am 02:15 Clear 63 17.2 59 15 87 87 S 5 7 29.97 1015 10 16.0934 0 0
2:35 am 02:35 Clear 63 17.1 60 15.3 89 89 Calm 29.97 1015 10 16.0934 0 0
2:55 am 02:55 Clear 62 16.7 59 14.9 89 89 Calm 30 1016 10 16.0934 0 0
3:15 am 03:15 Clear 61 16.1 58 14.4 90 90 Calm 30 1016 10 16.0934 0 0
3:35 am 03:35 Clear 59 15.2 57 14.1 93 93 Calm 30 1016 7 11.26538 0 0
3:55 am 03:55 Clear with Mist and Fog 59 15 57 14 94 94 Calm 30 1016 5 8.0467 0 0
4:15 am 04:15 Clear with Mist and Fog 59 14.9 57 14 94 94 Calm 30 1016 3 4.82802 0 0
4:35 am 04:35 Clear with Mist and Fog 58 14.5 56 13.5 94 94 Calm 30 1016 4 6.43736 0 0
4:55 am 04:55 Clear with Mist and Fog 58 14.5 57 13.7 95 95 Calm 30 1016 4 6.43736 0 0
5:15 am 05:15 Clear with Mist and Fog 58 14.5 57 13.7 95 95 Calm 30 1016 4 6.43736 0 0
5:35 am 05:35 Clear with Mist and Fog 58 14.5 56 13.6 94 94 Calm 30 1016 3 4.82802 0 0
5:55 am 05:55 Clear with Mist and Fog 57 14.1 56 13.3 95 95 Calm 30 1016 5 8.0467 0 0
6:15 am 06:15 Clear 58 14.6 57 13.7 94 94 Calm 30 1016 7 11.26538 0 0
6:35 am 06:35 Clear 58 14.6 56 13.6 94 94 Calm 30 1016 7 11.26538 0 0
6:55 am 06:55 Clear with Mist and Fog 57 14.1 56 13.2 94 94 NW 5 7 30 1016 5 8.0467 0 0
7:15 am 07:15 Sunny with Mist and Fog 57 13.7 55 12.9 95 95 W 5 7 30 1016 4 6.43736 0 0
7:35 am 07:35 Sunny with Mist and Fog 58 14.3 56 13.5 95 95 Calm 30 1016 4 6.43736 0 0
7:55 am 07:55 Sunny with Mist and Fog 59 14.8 57 14 95 95 WSW 3 6 30.03 1017 4 6.43736 0 0
8:15 am 08:15 Sunny with Mist and Fog 60 15.5 58 14.6 94 94 W 3 6 30.03 1017 4 6.43736 0 0
8:35 am 08:35 Sunny with Mist and Fog 62 16.6 60 15.7 94 94 W 3 6 30.03 1017 4 6.43736 0 0
8:55 am 08:55 Sunny with Mist and Fog 64 17.7 62 16.6 93 93 W 5 7 30 1016 5 8.0467 0 0
9:15 am 09:15 Sunny 65 18.6 63 17.1 91 91 NW 5 7 30 1016 7 11.26538 0 0
9:35 am 09:35 Sunny 67 19.4 63 17 86 86 NW 6 9 30 1016 10 16.0934 0 0
9:55 am 09:55 Sunny 69 20.3 63 17.4 84 84 NW 6 9 30.03 1017 10 16.0934 0 0
10:15 am 10:15 Sunny 70 21.2 64 17.9 82 82 NNW 5 7 30 1016 10 16.0934 0 0
10:35 am 10:35 Sunny 72 22.4 65 18.3 78 78 NNW 5 7 30 1016 10 16.0934 0 0
10:55 am 10:55 Sunny 74 23.6 67 19.3 77 77 N 3 6 30 1016 10 16.0934 0 0
11:15 am 11:15 Sunny 77 25.1 67 19.2 70 70 NNE 6 9 29.97 1015 10 16.0934 0 0
11:35 am 11:35 Sunny 78 25.7 65 18.5 65 65 NNE 6 9 29.97 1015 10 16.0934 0 0
11:55 am 11:55 Sunny 79 26.3 65 18.6 63 63 ENE 7 11 29.97 1015 10 16.0934 0 0
12:15 pm 12:15 Sunny 80 26.8 66 18.7 61 61 NE 8 13 29.97 1015 10 16.0934 0 0
12:35 pm 12:35 Sunny 81 27.2 66 19.1 61 61 NNE 8 13 29.97 1015 10 16.0934 0 0
12:55 pm 12:55 Sunny 82 27.7 67 19.2 60 60 NNE 7 11 29.97 1015 10 16.0934 0 0
1:15 pm 13:15 Sunny 82 28 65 18.1 55 55 NNE 8 13 29.94 1014 10 16.0934 0 0
1:35 pm 13:35 Sunny 83 28.5 65 18.4 54 54 N 5 7 29.94 1014 10 16.0934 0 0
1:55 pm 13:55 Sunny 84 28.8 64 17.8 51 51 NNE 6 9 29.94 1014 10 16.0934 0 0
2:15 pm 14:15 Sunny 85 29.3 62 16.8 47 47 NE 6 9 29.94 1014 10 16.0934 0 0
2:35 pm 14:35 Sunny 85 29.5 61 16.3 45 45 NNE 6 9 29.94 1014 10 16.0934 0 0
2:55 pm 14:55 Sunny 85 29.7 60 15.3 42 42 NNE 8 13 29.94 1014 10 16.0934 0 0
3:15 pm 15:15 Sunny 86 30 60 15.3 41 41 N 8 13 29.91 1013 10 16.0934 0 0
3:35 pm 15:35 Sunny 86 30 58 14.5 39 39 N 6 9 29.91 1013 10 16.0934 0 0
3:55 pm 15:55 Sunny 85 29.7 59 14.8 40 40 N 6 9 29.91 1013 10 16.0934 0 0
4:15 pm 16:15 Sunny 86 29.8 59 14.9 40 40 NNE 7 11 29.91 1013 10 16.0934 0 0
4:35 pm 16:35 Sunny 85 29.5 59 15 41 41 NNE 7 11 29.91 1013 10 16.0934 0 0
4:55 pm 16:55 Sunny 85 29.4 58 14.3 40 40 ENE 8 13 29.91 1013 10 16.0934 0 0
5:15 pm 17:15 Sunny 84 29.1 59 14.9 42 42 NE 7 11 29.91 1013 10 16.0934 0 0
5:35 pm 17:35 Sunny 84 28.7 60 15.8 46 46 NE 7 11 29.91 1013 10 16.0934 0 0
5:55 pm 17:55 Sunny 83 28.3 61 16.1 48 48 NE 7 11 29.91 1013 10 16.0934 0 0
6:15 pm 18:15 Sunny 82 27.8 62 16.9 52 52 ENE 5 7 29.91 1013 10 16.0934 0 0
6:35 pm 18:35 Sunny 81 27 62 16.4 52 52 ENE 5 7 29.94 1014 7 11.26538 0 0
6:55 pm 18:55 Sunny 79 26.3 62 16.7 56 56 E 6 9 29.94 1014 10 16.0934 0 0
7:15 pm 19:15 Sunny 77 25.1 62 16.8 60 60 E 5 7 29.94 1014 10 16.0934 0 0
7:35 pm 19:35 Hazy 76 24.3 62 16.8 63 63 ESE 3 6 29.94 1014 5 8.0467 0 0
7:55 pm 19:55 Hazy 75 24 59 15 57 57 ESE 7 11 29.94 1014 4 6.43736 0 0
8:15 pm 20:15 Hazy 74 23.4 58 14.5 57 57 ESE 7 11 29.97 1015 4 6.43736 0 0
8:35 pm 20:35 Hazy 72 22.1 58 14.4 62 62 ESE 6 9 29.97 1015 5 8.0467 0 0
8:55 pm 20:55 Hazy 71 21.9 58 14.3 62 62 SE 3 6 30 1016 4 6.43736 0 0
9:15 pm 21:15 Clear 68 19.8 59 14.9 74 74 Calm 30.03 1017 10 16.0934 0 0
9:35 pm 21:35 Clear 67 19.4 60 15.5 78 78 SE 3 6 30.03 1017 10 16.0934 0 0
9:55 pm 21:55 Clear 66 18.7 59 15.2 80 80 SE 3 6 30.03 1017 10 16.0934 0 0
10:15 pm 22:15 Hazy 67 19.3 60 15.4 78 78 ESE 5 7 30.03 1017 5 8.0467 0 0
10:35 pm 22:35 Clear 67 19.4 59 15.1 76 76 SE 5 7 30.03 1017 N/A 0 0
10:55 pm 22:55 Clear 64 18 58 14.6 81 81 SSW 3 6 30.03 1017 N/A 0 0
11:15 pm 23:15 Clear 64 17.8 59 15 84 84 Calm 30.03 1017 10 16.0934 0 0
11:35 pm 23:35 Clear 63 17.4 58 14.7 84 84 S 3 6 30.03 1017 10 16.0934 0 0
11:55 pm 23:55 Clear 63 17 58 14.7 86 86 Calm 30.06 1018 7 11.26538 0 0

Powered by AerisWeather